STARLINK-33572, 62767

Orbit data source: Space-Track

STARLINK-33572, 62767 is a payload satellite owned by SpaceX/Seattle (US) in LEO that was launched on Tue, 21 Jan 2025 UTC via an FALCON 9 launch vehicle from the Air Force Western Test Range (AFWTR). Payload-class satellites include a variety of spacecraft equipped with specific instruments for various scientific and technological missions. These include communications satellites like Starlink; space stations such as the ISS; scientific satellites like the Hubble; Earth observation satellites from companies like Planet Labs, Umbra, and HawkEye 360; GPS; miniature CubeSats for education and research; and military/defense satellites.

Loading next visibility...
Identifier
62767, 2025-015K
Orbit
LEO
Country
Flag of USUS
Related business
Manufacturer
SpaceX/Seattle
Mission
Operational Commercial Communications
Bus & Motor
STARLINK V2MO, Unknown motor
Mass
575 kg wet, ~530 kg dry
Launch date (UTC)
2025-01-21 (1 year ago)
Launch vehicle
FALCON 9
Launch site
Air Force Western Test Range (AFWTR)
Object type
Payload
Rocket body
Debris
Shape & HBR
Box + 2 Pan, 17.7 m
Radar Cross Section
36.964 m², Large (>1 m²)

Expand to show TLE details & history
Last TLE update: 12 hours ago

TLE from 12 hours ago
0 STARLINK-33572
1 62767U 25015K   26171.36384177  .00024511  00000-0  73494-3 0  9990
2 62767  53.1583 204.6531 0001367  80.0858 280.0299 15.34367413 80153
Epoch: 2026-06-20T08:43Z
TLE epoch observation values (Epoch: 2026-06-20T08:43:55.928Z)
Latitude
-0.00003°
Longitude
165.09051°
Altitude
463.539 km
Speed
7.636 km/s
True Right ascension
13h 38m 36s
True Declination
0° 00' 00"
Sunlit
Object was in full shadow at epoch
Visualization orbit readout
Latitude
Unknown
Longitude
Unknown
Altitude
Unknown
Speed
Unknown
Apparent Right ascension
Unknown
Apparent Declination
Unknown
Sunlit
N/A
Visualization observer readout
Local Sidereal Time
07:21:56
Azimuth
Unknown
Elevation
Unknown
Doppler factor
Unknown
Orbital elements
Apogee altitude
463.992 km
Perigee altitude
462.122 km
Semi-major axis
6,841.194 km
Eccentricity
0.00014
Inclination
53.1583°
RAAN
204.6531°
Arg. of periapsis
80.0858°
True anomaly
280.01447°
Mean anomaly
280.0299°
Eccentric anomaly
280.02219°
Mean motion
3.83571 °/min
Orbital period
93.85 mins
BSTAR
0.00073494
Loading maneuver chart data...
Computing Atmospheric mass density...
Loading historical data...
Loading historical data...
Loading historical data...
Loading historical data...
Loading historical data...
Loading historical data...
Loading historical data...

Documentation

Showing up to 5 results
|